Radiation Dose at Monitoring Post of Fukushima Daini Nuclear Power Station
Date,Time,MP-1(microSv/h),MP-2(microSv/h),MP-3(microSv/h),MP-4(microSv/h),MP-5(microSv/h),MP-6(microSv/h),MP-7(microSv/h),Wind Direction,Wind Velocity(m/s),Rain
2017/07/04,00:00,0.341,0.215,0.354,0.328,0.321,0.174,0.103,west,7.5,No
2017/07/04,00:10,0.345,0.214,0.350,0.332,0.318,0.173,0.103,west,8.0,No
2017/07/04,00:20,0.344,0.214,0.355,0.330,0.316,0.174,0.104,west,6.9,No
2017/07/04,00:30,0.340,0.215,0.354,0.328,0.320,0.174,0.102,west,7.3,No
2017/07/04,00:40,0.344,0.216,0.354,0.330,0.322,0.173,0.103,west-southwest,6.4,No
2017/07/04,00:50,0.345,0.215,0.351,0.332,0.320,0.174,0.103,west-southwest,5.4,No
2017/07/04,01:00,0.343,0.214,0.355,0.331,0.318,0.174,0.102,west-southwest,6.3,No
2017/07/04,01:10,0.341,0.214,0.355,0.329,0.320,0.174,0.103,west,5.0,No
2017/07/04,01:20,0.345,0.217,0.352,0.328,0.320,0.174,0.104,west-southwest,3.8,No
2017/07/04,01:30,0.346,0.215,0.351,0.333,0.320,0.175,0.103,southwest,3.5,No
2017/07/04,01:40,0.343,0.214,0.355,0.331,0.318,0.175,0.103,west,3.3,No
2017/07/04,01:50,0.341,0.215,0.355,0.327,0.318,0.174,0.104,west,5.6,No
2017/07/04,02:00,0.345,0.216,0.352,0.330,0.322,0.174,0.103,west-northwest,4.5,No
2017/07/04,02:10,0.345,0.215,0.351,0.333,0.320,0.175,0.104,west-northwest,5.3,No
2017/07/04,02:20,0.344,0.214,0.356,0.330,0.318,0.175,0.103,west-northwest,4.7,No
2017/07/04,02:30,0.341,0.215,0.356,0.330,0.318,0.173,0.103,west-northwest,2.9,No
2017/07/04,02:40,0.345,0.217,0.355,0.330,0.322,0.175,0.104,southwest,1.4,No
2017/07/04,02:50,0.345,0.215,0.350,0.330,0.321,0.174,0.104,northwest,1.6,No
2017/07/04,03:00,0.344,0.213,0.357,0.329,0.317,0.174,0.103,northwest,3.2,No
2017/07/04,03:10,0.343,0.216,0.356,0.327,0.316,0.174,0.104,northwest,3.8,Yes
2017/07/04,03:20,0.346,0.218,0.354,0.332,0.322,0.175,0.104,northwest,4.3,No
2017/07/04,03:30,0.346,0.216,0.353,0.331,0.322,0.175,0.104,north-northwest,4.0,No
2017/07/04,03:40,0.345,0.215,0.356,0.329,0.318,0.173,0.103,north-northwest,5.0,Yes
2017/07/04,03:50,0.344,0.217,0.355,0.330,0.317,0.175,0.104,north,1.9,Yes
2017/07/04,04:00,0.347,0.217,0.352,0.333,0.322,0.175,0.105,north,2.4,Yes
2017/07/04,04:10,0.345,0.214,0.355,0.332,0.322,0.174,0.103,east-northeast,0.7,Yes
2017/07/04,04:20,0.343,0.216,0.356,0.329,0.318,0.175,0.105,-,CALM,Yes
2017/07/04,04:30,0.348,0.217,0.353,0.333,0.321,0.175,0.104,north,2.5,Yes
2017/07/04,04:40,0.348,0.214,0.354,0.331,0.321,0.173,0.104,north,2.6,Yes
2017/07/04,04:50,0.344,0.216,0.357,0.329,0.318,0.175,0.104,north,1.6,Yes
2017/07/04,05:00,0.346,0.217,0.353,0.332,0.320,0.175,0.105,north,2.3,Yes
2017/07/04,05:10,0.345,0.216,0.355,0.330,0.321,0.173,0.104,-,CALM,Yes
2017/07/04,05:20,0.342,0.217,0.356,0.329,0.320,0.176,0.105,east,2.2,Yes
2017/07/04,05:30,0.346,0.215,0.352,0.331,0.319,0.176,0.104,east,1.2,Yes
2017/07/04,05:40,0.343,0.215,0.355,0.328,0.322,0.175,0.104,south,1.0,Yes
2017/07/04,05:50,0.340,0.216,0.352,0.327,0.317,0.175,0.105,southeast,1.6,Yes
2017/07/04,06:00,0.345,0.214,0.351,0.332,0.318,0.176,0.104,northeast,2.2,No
2017/07/04,06:10,0.344,0.216,0.354,0.329,0.319,0.174,0.104,north-northeast,1.6,No
2017/07/04,06:20,0.343,0.216,0.352,0.329,0.316,0.174,0.105,north,1.3,No
2017/07/04,06:30,0.345,0.214,0.352,0.331,0.321,0.174,0.103,north,0.6,Yes
2017/07/04,06:40,0.342,0.215,0.355,0.327,0.319,0.174,0.104,south-southwest,1.1,No
2017/07/04,06:50,0.343,0.214,0.351,0.331,0.316,0.174,0.103,east-southeast,1.4,No
2017/07/04,07:00,0.345,0.215,0.352,0.330,0.322,0.174,0.104,east-northeast,0.9,No
2017/07/04,07:10,0.342,0.214,0.354,0.327,0.319,0.174,0.104,west,4.8,No
2017/07/04,07:20,0.343,0.213,0.350,0.330,0.316,0.174,0.103,north-northwest,2.4,No
2017/07/04,07:30,0.343,0.216,0.355,0.330,0.320,0.173,0.103,northwest,1.4,No
2017/07/04,07:40,0.342,0.215,0.351,0.326,0.318,0.174,0.104,southeast,0.9,Yes
2017/07/04,07:50,0.345,0.214,0.351,0.330,0.315,0.174,0.103,east-southeast,2.5,Yes
2017/07/04,08:00,0.343,0.215,0.354,0.330,0.321,0.172,0.104,east-southeast,2.1,Yes
2017/07/04,08:10,0.343,0.213,0.352,0.329,0.319,0.174,0.104,east-northeast,0.9,Yes
2017/07/04,08:20,0.346,0.214,0.352,0.330,0.318,0.175,0.104,east-southeast,3.1,Yes
2017/07/04,08:30,0.342,0.215,0.355,0.327,0.321,0.173,0.103,southeast,1.8,Yes
2017/07/04,08:40,0.344,0.214,0.351,0.330,0.316,0.174,0.103,south,1.4,No
2017/07/04,08:50,0.345,0.215,0.355,0.329,0.318,0.174,0.104,southeast,2.2,Yes
2017/07/04,09:00,0.342,0.213,0.353,0.327,0.320,0.172,0.103,southeast,3.1,Yes
2017/07/04,09:10,0.344,0.214,0.351,0.330,0.316,0.174,0.103,southeast,2.7,Yes
2017/07/04,09:20,0.344,0.215,0.354,0.328,0.319,0.173,0.104,east-southeast,2.6,No
2017/07/04,09:30,0.341,0.213,0.350,0.329,0.321,0.173,0.103,east-southeast,2.1,Yes
2017/07/04,09:40,0.345,0.214,0.353,0.330,0.316,0.174,0.104,east,2.6,Yes
2017/07/04,09:50,0.344,0.214,0.354,0.327,0.320,0.174,0.104,east,1.9,Yes
2017/07/04,10:00,0.341,0.215,0.351,0.330,0.319,0.173,0.103,-,CALM,Yes
2017/07/04,10:10,0.345,0.215,0.354,0.330,0.316,0.175,0.104,east-southeast,1.1,Yes
2017/07/04,10:20,0.343,0.214,0.354,0.327,0.320,0.174,0.103,east,1.6,Yes
2017/07/04,10:30,0.340,0.214,0.351,0.330,0.319,0.174,0.103,south-southeast,1.4,Yes
2017/07/04,10:40,0.344,0.214,0.353,0.330,0.315,0.175,0.104,south,1.7,Yes
2017/07/04,10:50,0.343,0.214,0.354,0.326,0.319,0.173,0.103,east-southeast,0.9,Yes
2017/07/04,11:00,0.341,0.214,0.351,0.330,0.319,0.174,0.103,southeast,1.1,Yes
2017/07/04,11:10,0.346,0.216,0.354,0.329,0.318,0.175,0.104,southeast,0.9,No
2017/07/04,11:20,0.344,0.215,0.354,0.328,0.317,0.173,0.103,south-southeast,2.1,Yes
2017/07/04,11:30,0.342,0.214,0.350,0.331,0.321,0.173,0.103,south-southeast,2.5,Yes
2017/07/04,11:40,0.345,0.216,0.352,0.330,0.318,0.174,0.104,south-southeast,3.5,Yes
2017/07/04,11:50,0.343,0.214,0.355,0.326,0.315,0.173,0.104,southeast,3.0,Yes
2017/07/04,12:00,0.342,0.214,0.350,0.330,0.321,0.173,0.103,south-southeast,3.0,Yes
2017/07/04,12:10,0.345,0.216,0.351,0.329,0.317,0.173,0.104,southeast,2.8,Yes
2017/07/04,12:20,0.343,0.215,0.356,0.326,0.316,0.174,0.103,south-southeast,3.1,Yes
2017/07/04,12:30,0.342,0.214,0.352,0.331,0.321,0.173,0.104,south-southeast,2.8,Yes
2017/07/04,12:40,0.344,0.214,0.352,0.329,0.320,0.174,0.104,south-southeast,3.0,Yes
2017/07/04,12:50,0.343,0.214,0.354,0.327,0.316,0.174,0.104,south,3.2,Yes
2017/07/04,13:00,0.342,0.214,0.351,0.329,0.317,0.173,0.104,south-southeast,5.0,Yes
2017/07/04,13:10,0.346,0.215,0.352,0.330,0.320,0.173,0.104,south,4.3,Yes
2017/07/04,13:20,0.344,0.215,0.355,0.328,0.318,0.174,0.103,south,3.6,Yes
2017/07/04,13:30,0.341,0.214,0.352,0.330,0.316,0.173,0.104,south,4.2,Yes
2017/07/04,13:40,0.345,0.216,0.353,0.330,0.322,0.175,0.104,south,3.9,Yes
2017/07/04,13:50,0.344,0.216,0.355,0.327,0.320,0.175,0.104,south,3.2,No
2017/07/04,14:00,0.342,0.215,0.352,0.329,0.316,0.174,0.105,south-southwest,2.0,No
2017/07/04,14:10,0.346,0.216,0.351,0.330,0.320,0.175,0.105,south-southwest,2.7,No
2017/07/04,14:20,0.344,0.216,0.354,0.327,0.320,0.175,0.103,south,4.7,No
2017/07/04,14:30,0.342,0.214,0.353,0.328,0.315,0.174,0.104,south,6.4,No
2017/07/04,14:40,0.345,0.217,0.352,0.331,0.318,0.174,0.104,south-southwest,6.4,No
2017/07/04,14:50,0.342,0.215,0.354,0.329,0.321,0.174,0.105,south-southwest,5.4,No
2017/07/04,15:00,0.342,0.215,0.351,0.329,0.318,0.173,0.103,south-southwest,7.3,Yes
2017/07/04,15:10,0.346,0.215,0.351,0.332,0.316,0.175,0.104,south-southwest,7.0,Yes
2017/07/04,15:20,0.345,0.215,0.356,0.329,0.320,0.175,0.105,south-southwest,7.3,Yes
2017/07/04,15:30,0.341,0.214,0.351,0.326,0.320,0.174,0.104,south-southwest,7.7,Yes
2017/07/04,15:40,0.348,0.216,0.351,0.331,0.315,0.174,0.105,south-southwest,6.0,Yes
2017/07/04,15:50,0.344,0.216,0.356,0.327,0.320,0.175,0.104,south-southwest,7.0,Yes
2017/07/04,16:00,0.342,0.215,0.353,0.327,0.320,0.176,0.105,south-southwest,7.4,Yes
2017/07/04,16:10,0.346,0.217,0.350,0.331,0.318,0.173,0.105,south-southwest,6.5,Yes
2017/07/04,16:20,0.345,0.216,0.356,0.331,0.318,0.175,0.105,south-southwest,5.4,No
2017/07/04,16:30,0.342,0.215,0.353,0.327,0.321,0.174,0.104,south-southwest,6.1,No
2017/07/04,16:40,0.344,0.214,0.349,0.328,0.319,0.173,0.103,south-southwest,7.5,No
2017/07/04,16:50,0.345,0.216,0.353,0.330,0.316,0.175,0.105,south-southwest,7.7,Yes
2017/07/04,17:00,0.342,0.215,0.353,0.326,0.319,0.174,0.104,south-southwest,7.8,Yes
2017/07/04,17:10,0.342,0.214,0.349,0.327,0.320,0.173,0.104,south-southwest,7.8,Yes
2017/07/04,17:20,0.345,0.216,0.350,0.331,0.318,0.174,0.104,south-southwest,4.6,Yes
2017/07/04,17:30,0.343,0.214,0.354,0.328,0.317,0.175,0.104,southwest,1.8,Yes
2017/07/04,17:40,0.341,0.213,0.351,0.326,0.322,0.174,0.103,southwest,3.9,Yes
2017/07/04,17:50,0.346,0.216,0.351,0.331,0.318,0.174,0.104,south-southwest,3.3,Yes
2017/07/04,18:00,0.342,0.216,0.354,0.330,0.316,0.174,0.104,southwest,2.3,Yes
2017/07/04,18:10,0.341,0.214,0.353,0.326,0.319,0.175,0.104,southwest,1.6,Yes
2017/07/04,18:20,0.346,0.216,0.350,0.329,0.320,0.174,0.106,southwest,2.2,Yes
2017/07/04,18:30,0.343,0.216,0.353,0.330,0.317,0.175,0.104,south-southwest,2.2,Yes
2017/07/04,18:40,0.340,0.214,0.353,0.328,0.318,0.175,0.105,south-southwest,2.2,Yes
2017/07/04,18:50,0.345,0.217,0.350,0.328,0.321,0.173,0.105,south,2.0,Yes
2017/07/04,19:00,0.344,0.215,0.353,0.332,0.318,0.174,0.105,south,2.0,Yes
2017/07/04,19:10,0.341,0.214,0.354,0.330,0.317,0.174,0.106,south,2.5,Yes
2017/07/04,19:20,0.344,0.216,0.350,0.328,0.321,0.174,0.105,south-southwest,3.6,Yes
2017/07/04,19:30,0.345,0.216,0.352,0.332,0.320,0.175,0.105,south,4.2,Yes
2017/07/04,19:40,0.340,0.214,0.355,0.326,0.317,0.175,0.105,south,3.5,Yes
2017/07/04,19:50,0.343,0.216,0.351,0.327,0.320,0.175,0.105,south-southwest,4.7,Yes
2017/07/04,20:00,0.344,0.216,0.351,0.331,0.319,0.176,0.105,south-southwest,4.6,Yes
2017/07/04,20:10,0.340,0.215,0.355,0.327,0.316,0.175,0.105,south-southwest,4.5,Yes
2017/07/04,20:20,0.343,0.215,0.351,0.328,0.323,0.175,0.105,south-southwest,4.0,Yes
2017/07/04,20:30,0.344,0.214,0.353,0.331,0.319,0.175,0.105,south-southwest,5.2,Yes
2017/07/04,20:40,0.338,0.215,0.352,0.328,0.316,0.174,0.105,south-southwest,5.8,Yes
2017/07/04,20:50,0.346,0.215,0.350,0.328,0.321,0.175,0.104,south-southwest,7.0,Yes
2017/07/04,21:00,0.341,0.214,0.352,0.329,0.318,0.174,0.104,south-southwest,7.4,Yes
2017/07/04,21:10,0.342,0.215,0.352,0.327,0.317,0.174,0.105,south-southwest,7.2,Yes
2017/07/04,21:20,0.345,0.214,0.349,0.330,0.319,0.175,0.104,south-southwest,7.1,Yes
2017/07/04,21:30,0.340,0.215,0.353,0.327,0.319,0.173,0.104,south-southwest,7.8,Yes
2017/07/04,21:40,0.343,0.214,0.351,0.327,0.318,0.173,0.105,south-southwest,6.4,Yes
2017/07/04,21:50,0.342,0.214,0.349,0.328,0.319,0.175,0.104,south,6.2,Yes
2017/07/04,22:00,0.341,0.215,0.353,0.326,0.317,0.173,0.104,south,6.2,Yes
2017/07/04,22:10,0.344,0.213,0.349,0.328,0.318,0.174,0.105,south,6.5,Yes
2017/07/04,22:20,0.340,0.214,0.351,0.326,0.320,0.174,0.103,south,7.7,Yes
2017/07/04,22:30,0.342,0.214,0.351,0.326,0.316,0.173,0.104,south,9.1,Yes
2017/07/04,22:40,0.342,0.212,0.349,0.329,0.318,0.174,0.104,south,8.9,Yes
2017/07/04,22:50,0.339,0.214,0.352,0.325,0.318,0.173,0.104,south,8.3,No
2017/07/04,23:00,0.343,0.213,0.351,0.326,0.315,0.173,0.104,south-southwest,7.0,Yes
2017/07/04,23:10,0.341,0.213,0.347,0.328,0.320,0.174,0.104,south-southwest,6.9,Yes
2017/07/04,23:20,0.339,0.214,0.352,0.324,0.319,0.174,0.103,south-southwest,6.0,Yes
2017/07/04,23:30,0.344,0.212,0.350,0.328,0.315,0.172,0.104,south-southwest,4.9,Yes
2017/07/04,23:40,0.341,0.214,0.348,0.327,0.319,0.174,0.104,south-southwest,3.8,Yes
2017/07/04,23:50,0.342,0.214,0.351,0.326,0.316,0.173,0.105,south,2.4,Yes
